Location: Wells
(51.2093°N, 2.6446°W)
Time: 23:08:07
(UTC+00:00)

SEEDS - Visible Passes

Search period start: 12 March 2026 00:00
Search period end: 22 March 2026 00:00
Orbit: 477 x 479 km, 97.8° (Epoch: 12 March)

Date Brightness Start Highest point End Pass type
(mag) Time Alt. Az. Time Alt. Az. Time Alt. Az.
12 Mar ? 05:34:29 10° NNE 05:38:03 68° ESE 05:41:36 10° S visible
13 Mar ? 05:08:20 10° NNE 05:11:37 33° E 05:14:52 10° SSE visible
14 Mar ? 04:42:33 10° NE 04:45:03 18° E 04:47:32 10° SE visible
15 Mar ? 05:48:34 10° NNE 05:52:09 84° WNW 05:55:42 10° SSW visible
16 Mar ? 05:22:10 10° NNE 05:25:39 47° E 05:29:05 10° S visible
17 Mar ? 04:56:02 10° NE 04:58:59 24° E 05:01:56 10° SSE visible
18 Mar ? 04:30:30 10° ENE 04:32:12 13° E 04:33:54 10° ESE visible
19 Mar ? 05:35:41 10° NNE 05:39:16 67° ESE 05:42:47 10° S visible
20 Mar ? 05:09:17 10° NNE 05:12:32 32° E 05:15:46 10° SSE visible
21 Mar ? 04:43:14 10° NE 04:45:40 17° E 04:48:06 10° SE visible
